GW4663 Weather Reports


time (UTC)temp
C
wind
direction
speed
KPH
gust
KPH
rain 1hr
cm
rain 24hr
cm
rain mn
cm
humidity
%
barometer
mb
20260906214214 33 171 1.6 1.6 0.00 0.03 0.03 28 1004.5
20260906213708 32 121 3.2 4.8 0.00 0.03 0.03 28 1004.7
20260906213202 33 135 1.6 3.2 0.00 0.03 0.03 27 1004.5
20260906212700 32 99 0.0 3.2 0.00 0.03 0.03 29 1005.0
20260906212155 32 127 0.0 1.6 0.00 0.03 0.03 29 1004.8
20260906211654 33 46 1.6 4.8 0.00 0.03 0.03 28 1004.8
20260906211149 32 145 3.2 4.8 0.00 0.03 0.03 30 1005.0
20260906210645 32 56 6.4 9.7 0.00 0.03 0.03 28 1005.3
20260906210140 32 189 3.2 4.8 0.00 0.03 0.03 28 1005.0
20260906205636 33 148 1.6 1.6 0.00 0.03 0.03 29 1005.3
20260906205132 33 134 0.0 0.0 0.00 0.03 0.03 28 1005.3
20260906204631 33 103 1.6 1.6 0.00 0.03 0.03 28 1005.4
20260906204125 33 159 1.6 3.2 0.00 0.03 0.03 28 1005.3
20260906203620 32 47 4.8 6.4 0.00 0.03 0.03 28 1005.3
20260906203120 31 128 1.6 3.2 0.00 0.03 0.03 28 1005.5
20260906202617 32 55 3.2 3.2 0.00 0.03 0.03 27 1005.4
20260906202111 32 178 1.6 1.6 0.00 0.03 0.03 27 1005.5
20260906201606 31 124 1.6 1.6 0.00 0.03 0.03 28 1005.5
20260906201105 31 60 3.2 4.8 0.00 0.03 0.03 29 1005.8
20260906200602 31 357 3.2 4.8 0.00 0.03 0.03 31 1005.8
20260906200057 31 11 6.4 9.7 0.00 0.03 0.03 30 1006.0
20260906195552 31 0 6.4 6.4 0.00 0.03 0.03 29 1006.0
20260906195049 31 57 3.2 4.8 0.00 0.03 0.03 30 1005.9
20260906194544 31 35 1.6 3.2 0.00 0.03 0.03 30 1006.1
20260906194040 31 74 4.8 4.8 0.00 0.03 0.03 30 1006.0
20260906193539 31 104 1.6 3.2 0.00 0.03 0.03 30 1006.3
20260906193035 31 148 1.6 3.2 0.00 0.03 0.03 30 1006.2
20260906192530 31 72 0.0 1.6 0.00 0.03 0.03 31 1006.2
20260906192029 30 146 4.8 6.4 0.00 0.03 0.03 32 1006.9
20260906191525 30 138 0.0 1.6 0.00 0.03 0.03 32 1006.6
20260906191023 30 156 0.0 0.0 0.00 0.03 0.03 32 1006.6
20260906190523 30 60 3.2 3.2 0.00 0.03 0.03 33 1007.1
20260906190018 29 94 6.4 6.4 0.00 0.03 0.03 33 1006.9
20260906185517 29 42 1.6 3.2 0.00 0.03 0.03 34 1007.1
20260906185016 30 56 1.6 1.6 0.00 0.03 0.03 33 1007.1
20260906184511 30 123 0.0 0.0 0.00 0.03 0.03 34 1007.2
20260906184007 28 293 3.2 3.2 0.00 0.03 0.03 35 1007.2
20260906183503 28 0 3.2 4.8 0.00 0.03 0.03 36 1007.5
20260906182958 29 81 1.6 1.6 0.00 0.03 0.03 36 1007.4
20260906182453 29 176 0.0 0.0 0.00 0.03 0.03 34 1007.5
20260906181949 28 57 0.0 1.6 0.00 0.03 0.03 36 1007.8
20260906181444 28 140 0.0 0.0 0.00 0.03 0.03 36 1008.0
20260906180940 27 76 3.2 4.8 0.00 0.03 0.03 38 1008.0
20260906180435 27 168 0.0 0.0 0.00 0.03 0.03 39 1008.1
20260906175933 27 99 3.2 4.8 0.00 0.03 0.03 41 1008.2
20260906175433 28 28 6.4 6.4 0.00 0.03 0.03 41 1008.4
20260906174931 28 333 1.6 3.2 0.00 0.03 0.03 40 1008.5
20260906174426 27 227 1.6 3.2 0.00 0.03 0.03 41 1008.4
20260906173921 26 190 0.0 1.6 0.00 0.03 0.03 44 1008.4
20260906173416 27 218 1.6 3.2 0.00 0.03 0.03 43 1008.8
20260906172915 27 201 1.6 1.6 0.00 0.03 0.03 41 1008.7
20260906172412 27 123 0.0 0.0 0.00 0.03 0.03 41 1009.1
20260906171907 27 154 0.0 1.6 0.00 0.03 0.03 43 1008.8
20260906171401 26 112 3.2 3.2 0.00 0.03 0.03 44 1009.1
20260906170857 27 51 3.2 3.2 0.00 0.03 0.03 42 1009.2
20260906170353 26 172 0.0 0.0 0.00 0.03 0.03 46 1009.3
20260906165849 25 235 1.6 3.2 0.00 0.03 0.03 45 1009.2
20260906165348 25 183 6.4 6.4 0.00 0.03 0.03 47 1009.3
20260906164843 25 103 1.6 3.2 0.00 0.03 0.03 50 1009.1
20260906164342 25 199 0.0 1.6 0.00 0.03 0.03 48 1009.3
20260906163838 25 265 3.2 3.2 0.00 0.03 0.03 49 1009.2
20260906163335 25 157 0.0 1.6 0.00 0.03 0.03 53 1009.3
20260906162832 25 181 1.6 3.2 0.00 0.03 0.03 51 1009.4
20260906162331 25 155 0.0 0.0 0.00 0.03 0.03 52 1009.2
20260906161826 25 149 1.6 3.2 0.00 0.03 0.03 51 1009.2
20260906161326 23 172 0.0 0.0 0.00 0.03 0.03 56 1009.2
20260906160825 23 271 3.2 4.8 0.00 0.03 0.03 55 1009.2
20260906160319 23 175 0.0 0.0 0.00 0.03 0.03 56 1009.4
20260906155817 23 173 1.6 1.6 0.00 0.03 0.03 56 1009.4
20260906155311 22 181 0.0 0.0 0.00 0.03 0.03 58 1009.4
20260906154808 22 92 1.6 1.6 0.00 0.03 0.03 61 1009.1
20260906154302 22 337 3.2 3.2 0.00 0.03 0.03 60 1009.5
20260906153800 22 214 1.6 3.2 0.00 0.03 0.03 60 1009.4
20260906153254 22 212 3.2 3.2 0.00 0.03 0.03 60 1009.5
20260906152750 21 186 0.0 0.0 0.00 0.03 0.03 63 1009.5
20260906152244 21 187 1.6 1.6 0.00 0.03 0.03 64 1009.8
20260906151744 21 145 0.0 0.0 0.00 0.03 0.03 65 1009.5
20260906151239 21 352 6.4 6.4 0.00 0.03 0.03 65 1009.7
20260906150735 20 205 0.0 1.6 0.00 0.03 0.03 67 1009.7
20260906150231 20 220 3.2 4.8 0.00 0.03 0.03 67 1009.4
20260906145729 20 178 3.2 3.2 0.00 0.03 0.03 67 1009.3
20260906145228 20 189 0.0 1.6 0.00 0.03 0.03 68 1009.4
20260906144724 20 240 4.8 4.8 0.00 0.03 0.03 68 1009.4
20260906144219 20 172 0.0 1.6 0.00 0.03 0.03 68 1009.5
20260906143718 20 197 0.0 0.0 0.00 0.03 0.03 69 1009.2
20260906143215 20 233 3.2 3.2 0.00 0.03 0.03 69 1009.1
20260906142714 20 274 6.4 6.4 0.00 0.03 0.03 69 1009.3
20260906142210 19 179 0.0 0.0 0.00 0.03 0.03 71 1009.3
20260906141708 18 253 4.8 6.4 0.00 0.03 0.03 71 1009.4
20260906141203 18 184 0.0 0.0 0.00 0.03 0.03 72 1009.4
20260906140703 18 233 6.4 9.7 0.00 0.03 0.03 72 1009.5
20260906140158 18 180 0.0 0.0 0.00 0.03 0.03 73 1009.4
20260906135654 18 254 6.4 6.4 0.00 0.03 0.03 73 1009.4
20260906135151 18 229 1.6 1.6 0.00 0.03 0.03 73 1009.4
20260906134646 18 228 3.2 3.2 0.00 0.03 0.03 73 1009.3
20260906134141 18 183 0.0 0.0 0.00 0.03 0.03 73 1009.3
20260906133637 17 237 1.6 1.6 0.00 0.03 0.03 73 1009.2
20260906133137 17 190 1.6 1.6 0.00 0.03 0.03 73 1009.2
20260906132632 17 191 0.0 1.6 0.00 0.03 0.03 74 1009.3
20260906132128 16 188 1.6 1.6 0.00 0.03 0.03 74 1009.2
20260906131624 16 174 0.0 0.0 0.00 0.03 0.03 75 1009.2
20260906131119 16 175 1.6 1.6 0.00 0.03 0.03 75 1009.1
20260906130614 16 167 0.0 0.0 0.00 0.03 0.03 76 1009.1
20260906130109 15 150 0.0 0.0 0.00 0.03 0.03 76 1009.2
20260906125607 15 150 0.0 0.0 0.00 0.03 0.03 76 1009.2
20260906125106 15 150 0.0 0.0 0.00 0.03 0.03 75 1009.3
20260906124601 15 151 1.6 1.6 0.00 0.03 0.03 75 1008.9
20260906124056 15 200 0.0 0.0 0.00 0.03 0.03 75 1008.6
20260906123555 16 201 0.0 0.0 0.00 0.03 0.03 75 1009.1
20260906123051 16 201 0.0 0.0 0.00 0.03 0.03 74 1008.7
20260906122550 16 201 0.0 0.0 0.00 0.03 0.03 74 1008.8
20260906122046 16 201 0.0 0.0 0.00 0.03 0.03 74 1008.9
20260906121542 16 190 0.0 0.0 0.00 0.03 0.03 74 1008.8
20260906121038 16 189 1.6 1.6 0.00 0.03 0.03 74 1008.8
20260906120533 16 163 0.0 0.0 0.00 0.03 0.03 73 1008.5
20260906120031 16 161 0.0 1.6 0.00 0.03 0.03 73 1009.1
20260906115530 16 202 0.0 0.0 0.00 0.03 0.03 72 1008.5
20260906115025 16 196 1.6 1.6 0.00 0.03 0.03 71 1008.5
20260906114520 16 180 0.0 0.0 0.00 0.03 0.03 71 1008.7
20260906114016 16 180 1.6 1.6 0.00 0.03 0.03 71 1008.7
20260906113514 16 201 0.0 0.0 0.00 0.03 0.03 70 1008.8
20260906113010 16 190 0.0 0.0 0.00 0.03 0.03 69 1008.7
20260906112504 16 190 0.0 0.0 0.00 0.03 0.03 69 1008.6
20260906112001 16 190 0.0 0.0 0.00 0.03 0.03 68 1008.5
20260906111500 16 190 0.0 0.0 0.00 0.03 0.03 68 1008.7
20260906110955 16 188 0.0 0.0 0.00 0.03 0.03 67 1008.7
20260906110450 16 188 1.6 1.6 0.00 0.03 0.03 67 1008.8
20260906105949 16 184 0.0 0.0 0.00 0.03 0.03 67 1008.7
20260906105445 16 192 3.2 3.2 0.00 0.03 0.03 67 1008.7
20260906104941 16 181 0.0 0.0 0.00 0.03 0.03 67 1008.2
20260906104439 16 167 0.0 1.6 0.00 0.03 0.03 67 1008.4
20260906103939 16 169 0.0 0.0 0.00 0.03 0.03 67 1008.5
20260906103437 16 178 1.6 1.6 0.00 0.03 0.03 66 1008.1
20260906102932 17 158 0.0 0.0 0.00 0.03 0.03 67 1008.1
20260906102432 17 158 0.0 0.0 0.00 0.03 0.03 65 1008.1
20260906101927 17 181 0.0 0.0 0.00 0.03 0.03 64 1008.1
20260906101422 17 182 0.0 1.6 0.00 0.03 0.03 66 1008.1
20260906100918 17 160 0.0 1.6 0.00 0.03 0.03 66 1008.2
20260906100417 17 183 0.0 1.6 0.00 0.03 0.03 66 1008.1
20260906095912 17 184 0.0 0.0 0.00 0.03 0.03 67 1008.2
20260906095408 17 183 0.0 0.0 0.00 0.03 0.03 67 1008.0
20260906094908 17 183 0.0 0.0 0.00 0.03 0.03 67 1008.4
20260906094403 17 187 0.0 0.0 0.00 0.03 0.03 67 1008.1
20260906093859 17 187 0.0 1.6 0.00 0.03 0.03 68 1008.0
20260906093354 17 184 1.6 1.6 0.00 0.03 0.03 70 1008.1
20260906092848 17 193 0.0 0.0 0.00 0.03 0.03 70 1008.2
20260906092344 17 192 1.6 1.6 0.00 0.03 0.03 70 1008.1
20260906091839 17 168 0.0 0.0 0.00 0.03 0.03 70 1008.1
20260906091335 17 167 0.0 0.0 0.00 0.03 0.03 70 1007.9
20260906090832 17 165 0.0 0.0 0.00 0.03 0.03 69 1008.1
20260906090330 17 165 0.0 0.0 0.00 0.03 0.03 68 1008.0
20260906085830 17 180 0.0 0.0 0.00 0.03 0.03 67 1007.9
20260906085329 17 134 0.0 0.0 0.00 0.03 0.03 66 1007.6
20260906084824 17 155 0.0 0.0 0.00 0.03 0.03 66 1007.9
20260906084318 17 155 0.0 0.0 0.00 0.03 0.03 66 1008.0
20260906083813 18 154 0.0 0.0 0.00 0.03 0.03 67 1007.6
20260906083308 18 150 0.0 1.6 0.00 0.03 0.03 65 1008.0
20260906082803 18 144 0.0 0.0 0.00 0.03 0.03 65 1008.1
20260906082258 18 145 0.0 0.0 0.00 0.03 0.03 63 1007.9
20260906081754 18 161 1.6 1.6 0.00 0.03 0.03 62 1008.1
20260906081249 19 102 1.6 1.6 0.00 0.03 0.03 61 1008.2
20260906080745 19 173 0.0 0.0 0.00 0.03 0.03 57 1008.1
20260906080242 19 173 0.0 0.0 0.00 0.03 0.03 57 1008.4
20260906075741 18 173 0.0 1.6 0.00 0.03 0.03 60 1008.0
20260906075236 18 167 1.6 1.6 0.00 0.03 0.03 61 1008.0
20260906074731 19 161 0.0 0.0 0.00 0.03 0.03 58 1008.1
20260906074230 19 158 0.0 0.0 0.00 0.03 0.03 57 1008.0
20260906073730 18 158 0.0 0.0 0.00 0.03 0.03 59 1007.9
20260906073225 19 236 0.0 0.0 0.00 0.03 0.03 60 1007.9
20260906072721 20 236 0.0 0.0 0.00 0.03 0.03 59 1007.8
20260906072217 20 236 0.0 0.0 0.00 0.03 0.03 54 1007.5
20260906071713 20 206 0.0 1.6 0.00 0.03 0.03 55 1007.5
20260906071212 20 215 3.2 4.8 0.00 0.03 0.03 54 1007.5
20260906070709 20 180 1.6 1.6 0.00 0.03 0.03 54 1007.3
20260906070204 20 175 1.6 1.6 0.00 0.03 0.03 52 1007.2
20260906065703 20 193 4.8 4.8 0.00 0.03 0.03 53 1007.5
20260906065159 20 186 3.2 3.2 0.00 0.03 0.03 52 1007.2
20260906064654 20 201 1.6 1.6 0.00 0.03 0.03 52 1007.4
20260906064149 20 224 1.6 3.2 0.00 0.03 0.03 54 1007.2
20260906063644 20 250 4.8 4.8 0.00 0.03 0.03 54 1007.2
20260906063140 20 235 4.8 6.4 0.00 0.03 0.03 58 1007.2
20260906062636 20 195 1.6 1.6 0.00 0.03 0.03 54 1007.5
20260906062134 20 226 1.6 1.6 0.00 0.03 0.03 59 1007.5
20260906061632 20 226 3.2 3.2 0.00 0.03 0.03 58 1007.5
20260906061131 19 218 3.2 4.8 0.18 0.03 0.03 59 1007.6
20260906060628 22 239 4.8 6.4 1.07 0.03 0.03 57 1007.6
20260906060125 21 335 8.0 14.5 0.89 0.00 0.00 51 1008.4
20260906055620 24 124 3.2 4.8 0.00 0.00 0.00 37 1008.4
20260906055115 24 180 6.4 11.3 0.00 0.00 0.00 35 1008.4
20260906054610 24 219 4.8 4.8 0.00 0.00 0.00 34 1008.0
20260906054105 24 239 4.8 6.4 0.00 0.00 0.00 35 1007.9
20260906053602 24 185 6.4 9.7 0.00 0.00 0.00 35 1008.1
20260906053057 24 192 3.2 3.2 0.00 0.00 0.00 36 1007.8
20260906052552 24 252 6.4 6.4 0.00 0.00 0.00 36 1007.8
20260906052049 24 203 1.6 3.2 0.00 0.00 0.00 36 1008.0
20260906051544 23 225 3.2 3.2 0.00 0.00 0.00 36 1008.0
20260906051040 23 243 3.2 3.2 0.00 0.00 0.00 36 1008.0
20260906050535 23 217 4.8 4.8 0.00 0.00 0.00 37 1008.2
20260906050030 23 184 4.8 4.8 0.00 0.00 0.00 37 1008.0
20260906045523 23 204 1.6 1.6 0.00 0.00 0.00 36 1008.4
20260906045018 23 239 3.2 3.2 0.00 0.00 0.00 36 1008.2
20260906044514 23 186 0.0 1.6 0.00 0.00 0.00 36 1008.2
20260906044009 24 181 0.0 0.0 0.00 0.00 0.00 35 1008.6
20260906043504 24 166 0.0 0.0 0.00 0.00 0.00 35 1008.1
20260906043000 24 156 0.0 0.0 0.00 0.00 0.00 35 1008.5
20260906042459 24 149 0.0 0.0 0.00 0.00 0.00 34 1008.4
20260906041959 25 149 0.0 0.0 0.00 0.00 0.00 33 1008.4
20260906041455 25 150 0.0 0.0 0.00 0.00 0.00 32 1008.2
20260906040955 25 122 0.0 0.0 0.00 0.00 0.00 32 1008.1
20260906040450 25 143 3.2 4.8 0.00 0.00 0.00 32 1008.4
20260906035945 24 132 3.2 3.2 0.00 0.00 0.00 33 1008.0
20260906035440 24 147 8.0 9.7 0.00 0.00 0.00 33 1008.0
20260906034936 24 141 3.2 3.2 0.00 0.00 0.00 35 1007.4
20260906034431 25 121 0.0 0.0 0.00 0.00 0.00 33 1007.3
20260906033926 25 59 0.0 1.6 0.00 0.00 0.00 32 1007.5
20260906033421 25 359 1.6 4.8 0.00 0.00 0.00 32 1007.4
20260906032916 25 93 1.6 1.6 0.00 0.00 0.00 32 1007.3
20260906032413 25 115 1.6 1.6 0.00 0.00 0.00 31 1007.2
20260906031907 25 101 0.0 1.6 0.00 0.00 0.00 31 1007.1
20260906031403 25 118 0.0 0.0 0.00 0.00 0.00 30 1007.1
20260906030857 26 122 0.0 1.6 0.00 0.00 0.00 30 1006.8
20260906030352 26 46 1.6 3.2 0.00 0.00 0.00 30 1007.1
20260906025847 26 107 0.0 0.0 0.00 0.00 0.00 29 1006.9
20260906025341 26 114 0.0 1.6 0.00 0.00 0.00 29 1006.8
20260906024840 26 100 3.2 3.2 0.00 0.00 0.00 29 1006.7
20260906024339 26 345 4.8 4.8 0.00 0.00 0.00 28 1006.7
20260906023835 27 67 1.6 1.6 0.00 0.00 0.00 28 1006.6
20260906023331 27 351 3.2 3.2 0.00 0.00 0.00 27 1006.7
20260906022826 27 168 0.0 0.0 0.00 0.00 0.00 27 1006.7
20260906022321 27 199 4.8 4.8 0.00 0.00 0.00 26 1007.1
20260906021817 27 315 3.2 3.2 0.00 0.00 0.00 26 1006.6
20260906021315 27 328 3.2 3.2 0.00 0.00 0.00 26 1006.3
20260906020810 27 271 3.2 3.2 0.00 0.00 0.00 26 1006.6
20260906020310 27 221 1.6 1.6 0.00 0.00 0.00 26 1006.7
20260906015804 28 343 3.2 3.2 0.00 0.00 0.00 25 1006.5
20260906015305 28 131 1.6 4.8 0.00 0.00 0.00 25 1006.3
20260906014802 27 340 4.8 6.4 0.00 0.00 0.00 26 1006.1
20260906014258 27 154 0.0 0.0 0.00 0.00 0.00 26 1006.1
20260906013755 28 153 0.0 0.0 0.00 0.00 0.00 26 1006.0
20260906013255 28 153 0.0 0.0 0.00 0.00 0.00 25 1005.5
20260906012750 28 153 0.0 0.0 0.00 0.00 0.00 25 1006.0
20260906012245 28 153 0.0 0.0 0.00 0.00 0.00 24 1005.5
20260906011740 29 153 0.0 0.0 0.00 0.00 0.00 23 1005.6
20260906011240 29 153 0.0 0.0 0.00 0.00 0.00 23 1005.6
20260906010735 30 126 0.0 0.0 0.00 0.00 0.00 22 1005.6
20260906010232 30 138 0.0 0.0 0.00 0.00 0.00 22 1005.4
20260906005727 31 152 0.0 0.0 0.00 0.00 0.00 22 1005.8
20260906005220 32 210 1.6 3.2 0.00 0.00 0.00 20 1005.8
20260906004719 32 153 0.0 0.0 0.00 0.00 0.00 19 1005.9
20260906004215 32 153 0.0 0.0 0.00 0.00 0.00 20 1005.4
20260906003709 33 153 0.0 0.0 0.00 0.00 0.00 19 1005.5
20260906003205 33 176 0.0 0.0 0.00 0.00 0.00 18 1005.5
20260906002706 33 240 3.2 3.2 0.00 0.00 0.00 17 1005.5
20260906002200 33 153 0.0 0.0 0.00 0.00 0.00 17 1005.5
20260906001655 33 150 0.0 1.6 0.00 0.00 0.00 17 1005.4
20260906001155 33 145 0.0 0.0 0.00 0.00 0.00 17 1005.4
20260906000651 33 171 0.0 0.0 0.00 0.00 0.00 17 1005.3
20260906000146 33 211 1.6 1.6 0.00 0.00 0.00 17 1005.4
20260905235645 33 260 0.0 1.6 0.00 0.00 0.00 18 1005.2
20260905235140 33 251 0.0 1.6 0.00 0.00 0.00 18 1005.3
20260905234635 32 118 0.0 1.6 0.00 0.00 0.00 18 1005.4
20260905234132 33 148 0.0 0.0 0.00 0.00 0.00 17 1005.2
20260905233631 33 52 1.6 3.2 0.00 0.00 0.00 18 1005.4
20260905233125 33 90 0.0 1.6 0.00 0.00 0.00 18 1005.3
20260905232621 33 182 1.6 1.6 0.00 0.00 0.00 18 1005.4
20260905232117 33 186 1.6 1.6 0.00 0.00 0.00 17 1005.0
20260905231617 33 211 0.0 1.6 0.00 0.00 0.00 17 1005.2
20260905231113 33 38 3.2 3.2 0.00 0.00 0.00 19 1005.3
20260905230609 33 219 3.2 4.8 0.00 0.00 0.00 18 1005.2
20260905230107 33 264 3.2 4.8 0.00 0.00 0.00 18 1005.4
20260905225606 33 332 6.4 9.7 0.00 0.00 0.00 17 1005.3
20260905225101 33 316 3.2 4.8 0.00 0.00 0.00 18 1005.3
20260905224601 32 14 3.2 4.8 0.00 0.00 0.00 18 1005.2
20260905224101 32 30 3.2 3.2 0.00 0.00 0.00 18 1005.2
20260905223558 33 64 1.6 1.6 0.00 0.00 0.00 18 1005.5
20260905223054 33 344 3.2 3.2 0.00 0.00 0.00 18 1005.4
20260905222554 33 265 3.2 3.2 0.00 0.00 0.00 17 1005.4
20260905222049 33 63 4.8 4.8 0.00 0.00 0.00 17 1005.2
20260905221545 33 290 4.8 9.7 0.00 0.00 0.00 18 1005.3
20260905221042 33 31 4.8 6.4 0.00 0.00 0.00 18 1005.5
20260905220537 33 95 3.2 4.8 0.00 0.00 0.00 18 1005.8
20260905220033 33 31 3.2 3.2 0.00 0.00 0.00 18 1005.2
20260905215532 33 342 6.4 11.3 0.00 0.00 0.00 17 1005.4
20260905215028 33 28 3.2 3.2 0.00 0.00 0.00 17 1005.8